Time,TemperatureF,DewpointF,PressureIn,WindDirection,WindDirectionDegrees,WindSpeedMPH,WindSpeedGustMPH,Humidity,HourlyPrecipIn,Conditions,Clouds,dailyrainin,SolarRadiationWatts/m^2,SoftwareType,DateUTC
2013-06-26 00:01:00,50.0,49.0,-100.00,SE,138,1.0,8.0,96,0.01,,,0.23,0.000000,,2013-06-26 06:01:00,
2013-06-26 00:22:00,53.0,48.0,-100.00,SSW,211,2.0,7.0,83,0.00,,,0.17,0.000000,,2013-06-26 06:22:00,
2013-06-26 00:34:00,53.0,48.0,-100.00,SSW,211,2.0,7.0,83,0.00,,,0.17,0.000000,,2013-06-26 06:34:00,
2013-06-26 00:44:00,53.0,48.0,-100.00,SSW,211,2.0,7.0,83,0.00,,,0.17,0.000000,,2013-06-26 06:44:00,
2013-06-26 00:53:00,53.0,48.0,-100.00,SSW,211,2.0,7.0,83,0.00,,,0.17,0.000000,,2013-06-26 06:53:00,
2013-06-26 01:01:00,53.0,48.0,-100.00,SSW,211,2.0,7.0,83,0.00,,,0.17,0.000000,,2013-06-26 07:01:00,
2013-06-26 01:33:00,52.0,49.0,-100.00,SW,218,3.0,10.0,89,0.01,,,0.12,0.000000,,2013-06-26 07:33:00,
2013-06-26 01:43:00,52.0,49.0,-100.00,SW,218,3.0,10.0,89,0.01,,,0.12,0.000000,,2013-06-26 07:43:00,
2013-06-26 01:53:00,52.0,49.0,-100.00,SW,218,3.0,10.0,89,0.01,,,0.12,0.000000,,2013-06-26 07:53:00,
2013-06-26 02:01:00,52.0,49.0,-100.00,SW,218,3.0,10.0,89,0.01,,,0.12,0.000000,,2013-06-26 08:01:00,
2013-06-26 02:33:00,51.0,50.0,-100.00,WSW,245,1.0,9.0,97,0.02,,,0.11,0.000000,,2013-06-26 08:33:00,
2013-06-26 02:43:00,51.0,50.0,-100.00,WSW,245,1.0,9.0,97,0.02,,,0.11,0.000000,,2013-06-26 08:43:00,
2013-06-26 02:53:00,51.0,50.0,-100.00,WSW,245,1.0,9.0,97,0.02,,,0.11,0.000000,,2013-06-26 08:53:00,
2013-06-26 03:01:00,51.0,50.0,-100.00,WSW,245,1.0,9.0,97,0.02,,,0.11,0.000000,,2013-06-26 09:01:00,
2013-06-26 03:33:00,51.0,49.0,-100.00,South,185,1.0,7.0,94,0.02,,,0.12,0.000000,,2013-06-26 09:33:00,
2013-06-26 03:43:00,51.0,49.0,-100.00,South,185,1.0,7.0,94,0.02,,,0.12,0.000000,,2013-06-26 09:43:00,
2013-06-26 03:53:00,51.0,49.0,-100.00,South,185,1.0,7.0,94,0.02,,,0.12,0.000000,,2013-06-26 09:53:00,
2013-06-26 04:01:00,51.0,49.0,-100.00,South,185,1.0,7.0,94,0.02,,,0.12,0.000000,,2013-06-26 10:01:00,
2013-06-26 04:22:00,50.0,50.0,-100.00,ESE,122,1.0,3.0,100,0.01,,,0.13,0.000000,,2013-06-26 10:22:00,
2013-06-26 04:34:00,50.0,50.0,-100.00,ESE,122,1.0,3.0,100,0.01,,,0.13,0.000000,,2013-06-26 10:34:00,
2013-06-26 04:43:00,50.0,50.0,-100.00,ESE,122,1.0,3.0,100,0.01,,,0.13,0.000000,,2013-06-26 10:43:00,
2013-06-26 04:53:00,50.0,50.0,-100.00,ESE,122,1.0,3.0,100,0.01,,,0.13,0.000000,,2013-06-26 10:53:00,
2013-06-26 05:02:00,50.0,50.0,-100.00,ESE,122,1.0,3.0,100,0.01,,,0.13,0.000000,,2013-06-26 11:02:00,
2013-06-26 05:23:00,50.0,49.0,-100.00,South,182,2.0,7.0,98,0.02,,,0.15,0.000000,,2013-06-26 11:23:00,
2013-06-26 05:33:00,50.0,49.0,-100.00,South,182,2.0,7.0,98,0.02,,,0.15,0.000000,,2013-06-26 11:33:00,
2013-06-26 05:44:00,50.0,49.0,-100.00,South,182,2.0,7.0,98,0.02,,,0.15,0.000000,,2013-06-26 11:44:00,
2013-06-26 05:52:00,50.0,49.0,-100.00,South,182,2.0,7.0,98,0.02,,,0.15,0.000000,,2013-06-26 11:52:00,
2013-06-26 06:02:00,50.0,49.0,-100.00,South,182,2.0,7.0,98,0.02,,,0.15,0.000000,,2013-06-26 12:02:00,
2013-06-26 06:22:00,51.0,46.0,-100.00,SSW,206,2.0,7.0,82,0.00,,,-99.99,1.000000,,2013-06-26 12:22:00,
2013-06-26 06:34:00,51.0,46.0,-100.00,SSW,206,2.0,7.0,82,0.00,,,-99.99,1.000000,,2013-06-26 12:34:00,
2013-06-26 06:43:00,51.0,46.0,-100.00,SSW,206,2.0,7.0,82,0.00,,,-99.99,1.000000,,2013-06-26 12:43:00,
2013-06-26 06:52:00,51.0,46.0,-100.00,SSW,206,2.0,7.0,82,0.00,,,-99.99,1.000000,,2013-06-26 12:52:00,
2013-06-26 07:02:00,51.0,46.0,-100.00,SSW,206,2.0,7.0,82,0.00,,,-99.99,1.000000,,2013-06-26 13:02:00,
2013-06-26 07:34:00,51.0,48.0,-100.00,WSW,237,1.0,8.0,91,0.00,,,0.15,37.000000,,2013-06-26 13:34:00,
2013-06-26 07:43:00,51.0,48.0,-100.00,WSW,237,1.0,8.0,91,0.00,,,0.15,37.000000,,2013-06-26 13:43:00,
2013-06-26 07:53:00,51.0,48.0,-100.00,WSW,237,1.0,8.0,91,0.00,,,0.15,37.000000,,2013-06-26 13:53:00,
2013-06-26 08:02:00,51.0,48.0,-100.00,WSW,237,1.0,8.0,91,0.00,,,0.15,37.000000,,2013-06-26 14:02:00,
2013-06-26 08:34:00,55.0,52.0,-100.00,WSW,248,1.0,4.0,91,0.00,,,0.15,93.000000,,2013-06-26 14:34:00,
2013-06-26 08:42:00,55.0,52.0,-100.00,WSW,248,1.0,4.0,91,0.00,,,0.15,93.000000,,2013-06-26 14:42:00,
2013-06-26 08:53:00,55.0,52.0,-100.00,WSW,248,1.0,4.0,91,0.00,,,0.15,93.000000,,2013-06-26 14:53:00,
2013-06-26 09:02:00,55.0,52.0,-100.00,WSW,248,1.0,4.0,91,0.00,,,0.15,93.000000,,2013-06-26 15:02:00,
2013-06-26 09:34:00,59.0,52.0,-100.00,WSW,249,1.0,5.0,77,0.00,,,0.14,209.000000,,2013-06-26 15:34:00,
2013-06-26 09:44:00,59.0,52.0,-100.00,WSW,249,1.0,5.0,77,0.00,,,0.14,209.000000,,2013-06-26 15:44:00,
2013-06-26 09:53:00,59.0,52.0,-100.00,WSW,249,1.0,5.0,77,0.00,,,0.14,209.000000,,2013-06-26 15:53:00,
2013-06-26 10:01:00,59.0,52.0,-100.00,WSW,249,1.0,5.0,77,0.00,,,0.14,209.000000,,2013-06-26 16:01:00,
2013-06-26 10:22:00,61.0,50.0,-100.00,SW,230,4.0,10.0,67,0.00,,,0.14,289.000000,,2013-06-26 16:22:00,
2013-06-26 10:34:00,61.0,50.0,-100.00,SW,230,4.0,10.0,67,0.00,,,0.14,289.000000,,2013-06-26 16:34:00,
2013-06-26 10:43:00,61.0,50.0,-100.00,SW,230,4.0,10.0,67,0.00,,,0.14,289.000000,,2013-06-26 16:43:00,
2013-06-26 10:52:00,61.0,50.0,-100.00,SW,230,4.0,10.0,67,0.00,,,0.14,289.000000,,2013-06-26 16:52:00,
2013-06-26 11:01:00,61.0,50.0,-100.00,SW,230,4.0,10.0,67,0.00,,,0.14,289.000000,,2013-06-26 17:01:00,
2013-06-26 12:43:00,67.0,50.0,-100.00,WSW,243,5.0,17.0,54,0.00,,,0.14,788.000000,,2013-06-26 18:43:00,
2013-06-26 12:52:00,67.0,50.0,-100.00,WSW,243,5.0,17.0,54,0.00,,,0.14,788.000000,,2013-06-26 18:52:00,
2013-06-26 14:34:00,73.0,49.0,-100.00,WSW,245,4.0,19.0,43,0.00,,,0.14,919.000000,,2013-06-26 20:34:00,
2013-06-26 14:43:00,73.0,49.0,-100.00,WSW,245,4.0,19.0,43,0.00,,,0.14,919.000000,,2013-06-26 20:43:00,
2013-06-26 14:52:00,73.0,49.0,-100.00,WSW,245,4.0,19.0,43,0.00,,,0.14,919.000000,,2013-06-26 20:52:00,
2013-06-26 15:01:00,73.0,49.0,-100.00,WSW,245,4.0,19.0,43,0.00,,,0.14,919.000000,,2013-06-26 21:01:00,
2013-06-26 15:23:00,70.0,46.0,-100.00,WSW,239,6.0,17.0,42,0.00,,,0.14,802.000000,,2013-06-26 21:23:00,
2013-06-26 15:33:00,70.0,46.0,-100.00,WSW,239,6.0,17.0,42,0.00,,,0.14,802.000000,,2013-06-26 21:33:00,
2013-06-26 15:43:00,70.0,46.0,-100.00,WSW,239,6.0,17.0,42,0.00,,,0.14,802.000000,,2013-06-26 21:43:00,
2013-06-26 15:52:00,70.0,46.0,-100.00,WSW,239,6.0,17.0,42,0.00,,,0.14,802.000000,,2013-06-26 21:52:00,
2013-06-26 16:01:00,70.0,46.0,-100.00,WSW,239,6.0,17.0,42,0.00,,,0.14,802.000000,,2013-06-26 22:01:00,
2013-06-26 16:34:00,75.0,46.0,-100.00,WNW,287,5.0,14.0,36,0.00,,,0.11,853.000000,,2013-06-26 22:34:00,
2013-06-26 16:43:00,75.0,46.0,-100.00,WNW,287,5.0,14.0,36,0.00,,,0.11,853.000000,,2013-06-26 22:43:00,
2013-06-26 16:52:00,75.0,46.0,-100.00,WNW,287,5.0,14.0,36,0.00,,,0.11,853.000000,,2013-06-26 22:52:00,
2013-06-26 17:01:00,75.0,46.0,-100.00,WNW,287,5.0,14.0,36,0.00,,,0.11,853.000000,,2013-06-26 23:01:00,
2013-06-26 17:22:00,73.0,41.0,-100.00,WSW,247,5.0,19.0,32,0.00,,,0.11,718.000000,,2013-06-26 23:22:00,
2013-06-26 17:34:00,73.0,41.0,-100.00,WSW,247,5.0,19.0,32,0.00,,,0.11,718.000000,,2013-06-26 23:34:00,
2013-06-26 17:43:00,73.0,41.0,-100.00,WSW,247,5.0,19.0,32,0.00,,,0.11,718.000000,,2013-06-26 23:43:00,
2013-06-26 17:53:00,73.0,41.0,-100.00,WSW,247,5.0,19.0,32,0.00,,,0.11,718.000000,,2013-06-26 23:53:00,
2013-06-26 18:01:00,73.0,41.0,-100.00,WSW,247,5.0,19.0,32,0.00,,,0.11,718.000000,,2013-06-27 00:01:00,
2013-06-26 18:33:00,70.0,44.0,-100.00,WSW,246,4.0,19.0,39,0.00,,,0.11,323.000000,,2013-06-27 00:33:00,
2013-06-26 18:43:00,70.0,44.0,-100.00,WSW,246,4.0,19.0,39,0.00,,,0.11,323.000000,,2013-06-27 00:43:00,
2013-06-26 18:53:00,70.0,44.0,-100.00,WSW,246,4.0,19.0,39,0.00,,,0.11,323.000000,,2013-06-27 00:53:00,
2013-06-26 19:01:00,70.0,44.0,-100.00,WSW,246,4.0,19.0,39,0.00,,,0.11,323.000000,,2013-06-27 01:01:00,
2013-06-26 19:22:00,68.0,42.0,-100.00,WSW,243,5.0,16.0,39,0.00,,,0.11,27.000000,,2013-06-27 01:22:00,
2013-06-26 19:32:00,68.0,42.0,-100.00,WSW,243,5.0,16.0,39,0.00,,,0.11,27.000000,,2013-06-27 01:32:00,
2013-06-26 19:43:00,68.0,42.0,-100.00,WSW,243,5.0,16.0,39,0.00,,,0.11,27.000000,,2013-06-27 01:43:00,
2013-06-26 19:53:00,68.0,42.0,-100.00,WSW,243,5.0,16.0,39,0.00,,,0.11,27.000000,,2013-06-27 01:53:00,
2013-06-26 20:01:00,68.0,42.0,-100.00,WSW,243,5.0,16.0,39,0.00,,,0.11,27.000000,,2013-06-27 02:01:00,
2013-06-26 20:22:00,67.0,45.0,-100.00,WSW,239,4.0,14.0,45,0.00,,,0.10,22.000000,,2013-06-27 02:22:00,
2013-06-26 20:32:00,67.0,45.0,-100.00,WSW,239,4.0,14.0,45,0.00,,,0.10,22.000000,,2013-06-27 02:32:00,
2013-06-26 20:42:00,67.0,45.0,-100.00,WSW,239,4.0,14.0,45,0.00,,,0.10,22.000000,,2013-06-27 02:42:00,
2013-06-26 20:52:00,67.0,45.0,-100.00,WSW,239,4.0,14.0,45,0.00,,,0.10,22.000000,,2013-06-27 02:52:00,
2013-06-26 21:01:00,67.0,45.0,-100.00,WSW,239,4.0,14.0,45,0.00,,,0.10,22.000000,,2013-06-27 03:01:00,
2013-06-26 21:22:00,63.0,46.0,-100.00,WSW,239,3.0,10.0,53,0.00,,,0.09,12.000000,,2013-06-27 03:22:00,
2013-06-26 21:33:00,63.0,46.0,-100.00,WSW,239,3.0,10.0,53,0.00,,,0.09,12.000000,,2013-06-27 03:33:00,
2013-06-26 21:42:00,63.0,46.0,-100.00,WSW,239,3.0,10.0,53,0.00,,,0.09,12.000000,,2013-06-27 03:42:00,
2013-06-26 21:52:00,63.0,46.0,-100.00,WSW,239,3.0,10.0,53,0.00,,,0.09,12.000000,,2013-06-27 03:52:00,
2013-06-26 22:01:00,63.0,46.0,-100.00,WSW,239,3.0,10.0,53,0.00,,,0.09,12.000000,,2013-06-27 04:01:00,
2013-06-26 22:22:00,59.0,46.0,-100.00,SSE,150,2.0,8.0,61,0.00,,,0.09,0.000000,,2013-06-27 04:22:00,
2013-06-26 22:33:00,59.0,46.0,-100.00,SSE,150,2.0,8.0,61,0.00,,,0.09,0.000000,,2013-06-27 04:33:00,
2013-06-26 22:42:00,59.0,46.0,-100.00,SSE,150,2.0,8.0,61,0.00,,,0.09,0.000000,,2013-06-27 04:42:00,
2013-06-26 22:52:00,59.0,46.0,-100.00,SSE,150,2.0,8.0,61,0.00,,,0.09,0.000000,,2013-06-27 04:52:00,
2013-06-26 23:02:00,59.0,46.0,-100.00,SSE,150,2.0,8.0,61,0.00,,,0.09,0.000000,,2013-06-27 05:02:00,